Zurück zum Katalog

CZ-4 DEB

AktivSSO
NORAD 20973·DEBRIS·🇨🇳 China

Gestartet Sep 3, 1990 von Taiyuan Satellite Launch Center

Loading…

Nächste Überflüge (nächste 24 Stunden)

TLE

AktuellSource: Space-Track

Epoche: Sep 14, 2026, 20:55 UTC

1 20973U 90081CF  26257.87160363  .00002829  00000-0  50457-3 0  9990
2 20973  98.1492 313.1532 0031896 257.2991 159.8965 14.67480840883695

Verfolge CZ-4 DEB in Echtzeit mit AllMySat

Download on the App Store